TimeCDT,TemperatureF,Dew PointF,Humidity,Sea Level PressureIn,VisibilityMPH,Wind Direction,Wind SpeedMPH,Gust SpeedMPH,PrecipitationIn,Events,Conditions,WindDirDegrees,DateUTC
12:12 AM,66.4,55.9,69,30.06,10.0,Calm,Calm,-,N/A,,Clear,0,2013-08-22 05:12:00
12:33 AM,64.9,56.3,74,30.07,5.0,NNE,3.5,-,N/A,,Haze,20,2013-08-22 05:33:00
12:52 AM,65.3,55.6,71,30.06,10.0,Calm,Calm,-,N/A,,Clear,0,2013-08-22 05:52:00
1:13 AM,65.3,55.4,70,30.06,10.0,NNE,3.5,-,N/A,,Clear,30,2013-08-22 06:13:00
1:33 AM,64.9,55.0,70,30.07,10.0,NNE,3.5,-,N/A,,Clear,20,2013-08-22 06:33:00
1:52 AM,64.6,55.0,71,30.09,10.0,Calm,Calm,-,N/A,,Clear,0,2013-08-22 06:52:00
2:13 AM,63.9,55.2,73,30.09,10.0,Calm,Calm,-,N/A,,Clear,0,2013-08-22 07:13:00
2:33 AM,63.5,55.4,75,30.09,10.0,NNE,3.5,-,N/A,,Clear,20,2013-08-22 07:33:00
2:53 AM,63.5,55.4,75,30.09,10.0,North,4.6,-,N/A,,Clear,10,2013-08-22 07:53:00
3:12 AM,63.0,55.4,76,30.09,10.0,Calm,Calm,-,N/A,,Clear,0,2013-08-22 08:12:00
3:32 AM,62.4,55.4,78,30.10,10.0,North,4.6,-,N/A,,Clear,10,2013-08-22 08:32:00
3:53 AM,62.2,54.7,76,30.11,10.0,NE,3.5,-,N/A,,Clear,40,2013-08-22 08:53:00
4:13 AM,61.9,54.5,77,30.12,10.0,NNE,4.6,-,N/A,,Clear,20,2013-08-22 09:13:00
4:32 AM,61.3,54.0,77,30.13,10.0,NNE,4.6,-,N/A,,Clear,20,2013-08-22 09:32:00
4:52 AM,60.8,53.6,77,30.12,10.0,NNE,5.8,-,N/A,,Clear,20,2013-08-22 09:52:00
5:13 AM,61.0,53.2,76,30.12,10.0,NNE,8.1,-,N/A,,Clear,20,2013-08-22 10:13:00
5:33 AM,61.2,52.9,74,30.12,10.0,NNE,6.9,-,N/A,,Clear,20,2013-08-22 10:33:00
5:52 AM,61.3,52.5,73,30.12,10.0,NNE,6.9,-,N/A,,Clear,30,2013-08-22 10:52:00
6:13 AM,60.8,52.3,74,30.12,10.0,NNE,5.8,-,N/A,,Clear,30,2013-08-22 11:13:00
6:33 AM,59.9,52.2,76,30.12,10.0,NNE,6.9,-,N/A,,Clear,20,2013-08-22 11:33:00
6:52 AM,59.9,51.8,75,30.12,10.0,NNE,6.9,-,N/A,,Clear,20,2013-08-22 11:52:00
7:12 AM,60.3,51.3,72,30.14,10.0,NE,4.6,-,N/A,,Clear,40,2013-08-22 12:12:00
7:33 AM,61.5,50.9,68,30.14,10.0,NE,5.8,-,N/A,,Clear,40,2013-08-22 12:33:00
7:53 AM,63.3,50.9,64,30.14,10.0,NNE,3.5,-,N/A,,Clear,30,2013-08-22 12:53:00
8:13 AM,65.7,50.0,57,30.15,10.0,NE,6.9,-,N/A,,Clear,40,2013-08-22 13:13:00
8:32 AM,67.3,48.2,50,30.16,10.0,ENE,4.6,-,N/A,,Clear,70,2013-08-22 13:32:00
8:53 AM,68.4,48.0,48,30.16,10.0,ENE,6.9,-,N/A,,Clear,70,2013-08-22 13:53:00
9:13 AM,69.8,47.7,45,30.17,10.0,NE,3.5,-,N/A,,Scattered Clouds,50,2013-08-22 14:13:00
9:32 AM,71.4,47.8,43,30.17,10.0,NE,6.9,-,N/A,,Clear,40,2013-08-22 14:32:00
9:53 AM,72.5,46.4,39,30.17,10.0,ENE,9.2,-,N/A,,Clear,60,2013-08-22 14:53:00
10:13 AM,73.6,47.1,39,30.17,10.0,NE,8.1,-,N/A,,Clear,40,2013-08-22 15:13:00
10:32 AM,73.9,46.0,37,30.17,10.0,ENE,10.4,-,N/A,,Clear,70,2013-08-22 15:32:00
10:53 AM,75.0,44.2,33,30.17,10.0,ENE,12.7,16.1,N/A,,Clear,70,2013-08-22 15:53:00
11:13 AM,75.7,43.9,32,30.17,10.0,East,8.1,-,N/A,,Clear,80,2013-08-22 16:13:00
11:32 AM,76.1,44.2,32,30.17,10.0,NE,8.1,-,N/A,,Clear,50,2013-08-22 16:32:00
11:53 AM,77.9,43.3,29,30.17,10.0,NE,8.1,-,N/A,,Clear,50,2013-08-22 16:53:00
12:13 PM,78.8,43.2,28,30.16,10.0,NE,8.1,-,N/A,,Clear,40,2013-08-22 17:13:00
12:32 PM,79.3,43.0,27,30.16,10.0,ENE,10.4,-,N/A,,Clear,70,2013-08-22 17:32:00
12:53 PM,79.9,43.3,27,30.16,10.0,NNE,6.9,-,N/A,,Clear,30,2013-08-22 17:53:00
1:13 PM,79.9,45.0,29,30.16,10.0,NNE,5.8,-,N/A,,Clear,30,2013-08-22 18:13:00
1:33 PM,81.1,45.3,28,30.15,10.0,NNE,6.9,-,N/A,,Clear,30,2013-08-22 18:33:00
1:52 PM,81.5,43.7,26,30.14,10.0,NNE,5.8,-,N/A,,Clear,30,2013-08-22 18:52:00
2:13 PM,81.9,44.6,27,30.14,10.0,NNE,6.9,-,N/A,,Clear,30,2013-08-22 19:13:00
2:33 PM,82.2,43.9,26,30.14,7.0,ENE,6.9,-,N/A,,Clear,70,2013-08-22 19:33:00
2:52 PM,82.4,43.2,25,30.14,7.0,East,5.8,-,N/A,,Clear,80,2013-08-22 19:52:00
3:13 PM,82.8,44.8,26,30.14,7.0,NNE,4.6,-,N/A,,Clear,20,2013-08-22 20:13:00
3:33 PM,83.3,45.7,27,30.14,7.0,NW,5.8,-,N/A,,Clear,320,2013-08-22 20:33:00
3:53 PM,82.8,45.1,27,30.14,10.0,Calm,Calm,-,N/A,,Clear,0,2013-08-22 20:53:00
4:13 PM,82.8,45.0,26,30.14,7.0,North,4.6,-,N/A,,Clear,10,2013-08-22 21:13:00
4:33 PM,82.8,45.0,26,30.13,7.0,NNW,4.6,-,N/A,,Clear,330,2013-08-22 21:33:00
4:53 PM,83.7,45.7,26,30.13,7.0,North,5.8,-,N/A,,Clear,360,2013-08-22 21:53:00
5:12 PM,82.9,45.9,27,30.12,7.0,North,3.5,-,N/A,,Clear,360,2013-08-22 22:12:00
5:33 PM,82.4,45.5,27,30.12,7.0,North,4.6,-,N/A,,Clear,350,2013-08-22 22:33:00
5:53 PM,82.0,46.0,28,30.12,7.0,North,6.9,-,N/A,,Clear,10,2013-08-22 22:53:00
6:12 PM,81.5,46.0,29,30.12,7.0,Calm,Calm,-,N/A,,Clear,0,2013-08-22 23:12:00
6:33 PM,81.1,46.6,30,30.11,7.0,North,4.6,-,N/A,,Clear,360,2013-08-22 23:33:00
6:53 PM,80.6,46.6,30,30.11,7.0,Calm,Calm,-,N/A,,Clear,0,2013-08-22 23:53:00
7:12 PM,79.3,47.7,33,30.11,7.0,Calm,Calm,-,N/A,,Clear,0,2013-08-23 00:12:00
7:33 PM,77.9,49.1,36,30.11,10.0,Calm,Calm,-,N/A,,Clear,0,2013-08-23 00:33:00
7:53 PM,75.4,51.1,42,30.12,10.0,Calm,Calm,-,N/A,,Clear,0,2013-08-23 00:53:00
8:13 PM,71.4,53.8,54,30.12,7.0,Calm,Calm,-,N/A,,Clear,0,2013-08-23 01:13:00
8:33 PM,69.1,53.1,57,30.12,7.0,Calm,Calm,-,N/A,,Clear,0,2013-08-23 01:33:00
8:53 PM,66.2,55.6,69,30.13,10.0,Calm,Calm,-,N/A,,Clear,0,2013-08-23 01:53:00
9:12 PM,64.9,54.5,69,30.13,10.0,Calm,Calm,-,N/A,,Clear,0,2013-08-23 02:12:00
9:33 PM,63.5,55.2,74,30.14,10.0,Calm,Calm,-,N/A,,Clear,0,2013-08-23 02:33:00
9:53 PM,62.6,55.0,76,30.14,10.0,Calm,Calm,-,N/A,,Clear,0,2013-08-23 02:53:00
10:13 PM,61.2,56.3,84,30.14,10.0,Calm,Calm,-,N/A,,Clear,0,2013-08-23 03:13:00
10:32 PM,60.8,54.3,79,30.14,10.0,Calm,Calm,-,N/A,,Clear,0,2013-08-23 03:32:00
10:53 PM,59.9,54.3,82,30.14,10.0,Calm,Calm,-,N/A,,Clear,0,2013-08-23 03:53:00
11:13 PM,59.2,55.6,88,30.14,10.0,Calm,Calm,-,N/A,,Clear,0,2013-08-23 04:13:00
11:33 PM,58.8,54.3,85,30.16,10.0,Calm,Calm,-,N/A,,Clear,0,2013-08-23 04:33:00
11:53 PM,58.5,54.5,87,30.16,10.0,Calm,Calm,-,N/A,,Clear,0,2013-08-23 04:53:00